Kingman, AZ

6:39 PM MST on December 07, 2016 (GMT -0700)
Kingman

Weather History for KIGM - August, 2013

Change the Weather History Date:

Saturday, August 3, 2013

  Actual Average Record
Temperature  
Mean Temperature 86 °F 84 °F  
Max Temperature 99 °F 97 °F 105 °F (1915)
Min Temperature 72 °F 71 °F 51 °F (1920)
Degree Days  
Heating Degree Days 0 0  
Month to date heating degree days 0 0  
Since 1 June heating degree days 0 3  
Since 1 July heating degree days 0 0  
Cooling Degree Days 21 19  
Month to date cooling degree days 65 57  
Year to date cooling degree days 1419 1216  
Since 1 June cooling degree days 1197 1018  
Growing Degree Days 36 (Base 50)    
Moisture  
Dew Point 36 °F    
Average Humidity 20    
Maximum Humidity 33    
Minimum Humidity 6    
Precipitation  
Precipitation 0.00 in 0.02 in 0.89 in (1926)
Month to date precipitation 0.00 0.08  
Year to date precipitation 2.67 4.38  
Sea Level Pressure  
Sea Level Pressure 29.80 in    
Wind  
Wind Speed 12 mph (SSW)    
Max Wind Speed 25 mph    
Max Gust Speed 31 mph    
Visibility 10 miles    
Events      
T = Trace of Precipitation, MM = Missing Value Source: NWS Daily Summary

Daily Weather History Graph

Daily Weather History Graph

Search for Another Location

Airport or City:

Trip Planner

Search our weather history database for the weather conditions in past years. The results will help you decide how hot, cold, wet, or windy it might be!

Date:

Astronomy

Aug. 03, 2013 Rise Set
Actual Time 5:46 AM MST 7:36 PM MST
Civil Twilight 5:18 AM MST 8:04 PM MST
Nautical Twilight 4:45 AM MST 8:38 PM MST
Astronomical Twilight 4:09 AM MST 9:13 PM MST
Moon 3:00 AM MST (8/3) 5:21 PM MST (8/3)
Length of Visible Light 14h 45m
Length of Day
13h 50m
Waning Crescent, 9% of the Moon is Illuminated
Aug 3
Waning Crescent
Aug 6
New
Aug 14
First Quarter
Aug 20
Full
Aug 28
Last Quarter

Hourly Weather History & Observations

Time (MST) Temp. Dew Point Humidity Pressure Visibility Wind Dir Wind Speed Gust Speed Precip Events Conditions
12:51 AM 79.0 °F 41.0 °F 26% 29.76 in 10.0 mi SSW 11.5 mph - N/A   Clear
1:51 AM 79.0 °F 39.0 °F 24% 29.76 in 10.0 mi SSE 11.5 mph - N/A   Clear
2:51 AM 75.0 °F 41.0 °F 29% 29.76 in 10.0 mi SE 11.5 mph - N/A   Clear
3:51 AM 75.0 °F 41.0 °F 29% 29.77 in 10.0 mi SSE 10.4 mph - N/A   Clear
4:51 AM 73.0 °F 42.1 °F 33% 29.79 in 10.0 mi SE 9.2 mph - N/A   Clear
5:51 AM 73.0 °F 41.0 °F 31% 29.81 in 10.0 mi ESE 10.4 mph - N/A   Clear
6:51 AM 75.9 °F 41.0 °F 29% 29.82 in 10.0 mi South 5.8 mph - N/A   Clear
7:51 AM 82.0 °F 35.1 °F 18% 29.84 in 10.0 mi WSW 3.5 mph - N/A   Clear
8:51 AM 84.9 °F 37.9 °F 19% 29.85 in 10.0 mi WSW 8.1 mph - N/A   Clear
9:51 AM 86.0 °F 35.1 °F 16% 29.86 in 10.0 mi WSW 6.9 mph - N/A   Clear
10:51 AM 91.0 °F 32.0 °F 12% 29.84 in 10.0 mi Calm Calm - N/A   Clear
11:51 AM 96.1 °F 25.0 °F 8% 29.83 in 10.0 mi SW 18.4 mph 28.8 mph N/A   Clear
12:51 PM 97.0 °F 21.9 °F 7% 29.81 in 10.0 mi SW 21.9 mph 29.9 mph N/A   Clear
1:51 PM 98.1 °F 21.9 °F 7% 29.80 in 10.0 mi SSW 20.7 mph 26.5 mph N/A   Clear
2:51 PM 97.0 °F 21.0 °F 6% 29.79 in 10.0 mi SW 16.1 mph 26.5 mph N/A   Clear
3:51 PM 97.0 °F 25.0 °F 8% 29.78 in 10.0 mi SW 19.6 mph 28.8 mph N/A   Clear
4:51 PM 97.0 °F 30.9 °F 10% 29.77 in 10.0 mi SW 18.4 mph 26.5 mph N/A   Clear
5:51 PM 95.0 °F 37.0 °F 13% 29.76 in 10.0 mi WSW 13.8 mph 21.9 mph N/A   Clear
6:51 PM 93.0 °F 39.0 °F 15% 29.76 in 10.0 mi SW 12.7 mph - N/A   Clear
7:51 PM 88.0 °F 39.0 °F 18% 29.77 in 10.0 mi SSW 8.1 mph - N/A   Clear
8:51 PM 84.9 °F 39.9 °F 20% 29.78 in 10.0 mi South 9.2 mph - N/A   Clear
9:51 PM 82.0 °F 41.0 °F 23% 29.80 in 10.0 mi South 10.4 mph - N/A   Clear
10:51 PM 79.0 °F 41.0 °F 26% 29.80 in 10.0 mi South 9.2 mph - N/A   Clear
11:51 PM 79.0 °F 42.1 °F 27% 29.79 in 10.0 mi South 9.2 mph - N/A   Clear